Location: Baumgartsau
(48.4586°N, 14.0864°E)
Time: 13:57:43
(UTC+00:00)

SL-16 R/B - Visible Passes

Search period start: 06 August 2020 00:00
Search period end: 16 August 2020 00:00
Orbit: 842 x 846 km, 71.0° (Epoch: 05 August)

Date Brightness Start Highest point End Pass type
(mag) Time Alt. Az. Time Alt. Az. Time Alt. Az.
06 Aug 3.6 20:22:08 10° NNW 20:26:57 27° NE 20:30:41 15° E visible
06 Aug 2.3 22:05:54 10° NNW 22:11:32 65° WSW 22:12:32 55° SSW visible
06 Aug 4.5 23:54:11 10° W 23:54:23 10° W 23:54:23 10° W visible
07 Aug 3.6 20:07:51 10° NNW 20:12:38 27° NE 20:16:33 13° E visible
07 Aug 2.3 21:51:35 10° NNW 21:57:14 67° WSW 21:58:24 53° SSW visible
07 Aug 4.5 23:39:07 10° W 23:40:13 11° W 23:40:15 11° W visible
08 Aug 3.7 19:53:33 10° NNW 19:58:17 26° NE 20:02:26 12° E visible
08 Aug 2.2 21:37:16 10° NNW 21:42:55 69° WSW 21:44:17 51° S visible
08 Aug 4.4 23:24:26 10° W 23:25:56 11° W 23:26:08 11° W visible
09 Aug 3.7 19:39:15 10° N 19:43:56 25° NE 19:48:22 11° E visible
09 Aug 2.2 21:22:56 10° NNW 21:28:37 72° WSW 21:30:13 47° S visible
09 Aug 4.4 23:09:50 10° WNW 23:11:40 12° W 23:12:04 11° W visible
10 Aug 3.7 19:24:58 10° N 19:29:36 25° NE 19:34:12 10° E visible
10 Aug 2.2 21:08:38 10° NNW 21:14:19 74° WSW 21:16:10 43° S visible
10 Aug 4.4 22:55:17 10° WNW 22:57:24 12° W 22:58:01 12° WSW visible
11 Aug 3.7 19:10:41 10° N 19:15:15 24° NE 19:19:48 10° E visible
11 Aug 2.2 20:54:19 10° NNW 21:00:00 77° WSW 21:02:09 39° SSE visible
11 Aug 4.4 22:40:47 10° WNW 22:43:07 13° W 22:44:01 12° WSW visible
12 Aug 3.7 18:56:23 10° N 19:00:55 24° NE 19:05:25 10° E visible
12 Aug 2.2 20:40:00 10° NNW 20:45:41 79° WSW 20:48:11 35° SSE visible
12 Aug 4.4 22:26:18 10° WNW 22:28:50 13° W 22:30:02 12° WSW visible
13 Aug 2.2 20:25:41 10° NNW 20:31:22 82° WSW 20:34:15 31° SSE visible
13 Aug 4.3 22:11:50 10° WNW 22:14:34 14° W 22:16:06 12° WSW visible
14 Aug 2.2 20:11:21 10° NNW 20:17:04 84° WSW 20:20:20 27° SSE visible
14 Aug 4.4 21:57:23 10° WNW 22:00:17 14° W 22:02:12 12° WSW visible
15 Aug 2.2 19:57:03 10° NNW 20:02:46 87° WSW 20:06:28 23° SSE visible
15 Aug 4.4 21:42:57 10° WNW 21:46:00 15° W 21:48:20 12° WSW visible
